This demonstration page uses our WeatherBlox Daily Observations layout. Learn more.

Left ArrowRight Arrow

Hourly Observations for May 27, 2015

Temp ( °F °C ) Dew Point ( °F °C ) Humidity (%) Winds ( mph kmh ) Pressure ( in mb ) Visibility ( mi km ) Precip ( " mm )
12:53 am 00:53 Clear 56 13.3 48 8.9 75 75 SW 3 6 29.99 1016 10 16 0.00 0.00
1:53 am 01:53 Clear 55 12.8 48 8.9 77 77 WSW 5 7 30.00 1016 10 16 0.00 0.00
2:53 am 02:53 Clear 54 12.2 47 8.3 77 77 WSW 5 7 30.00 1016 10 16 0.00 0.00
3:53 am 03:53 Clear 54 12.2 47 8.3 77 77 SW 3 6 30.01 1016 10 16 0.00 0.00
4:53 am 04:53 Clear 53 11.7 47 8.3 80 80 WSW 5 7 30.01 1016 10 16 0.00 0.00
5:53 am 05:53 Clear 53 11.7 46 7.8 77 77 WSW 6 9 30.03 1017 10 16 0.00 0.00
6:53 am 06:53 Sunny 52 11.1 46 7.8 80 80 Calm 30.04 1017 10 16 0.00 0.00
7:53 am 07:53 Sunny 58 14.4 50 10 75 75 SW 3 6 30.06 1018 10 16 0.00 0.00
8:53 am 08:53 Sunny 64 17.8 53 11.7 68 68 VRB 5 7 30.07 1018 10 16 0.00 0.00
9:53 am 09:53 Sunny 70 21.1 52 11.1 53 53 VRB 5 7 30.07 1018 10 16 0.00 0.00
10:53 am 10:53 Sunny 73 22.8 49 9.4 43 43 SE 7 11 30.06 1018 10 16 0.00 0.00
11:53 am 11:53 Sunny 75 23.9 47 8.3 37 37 S 8 13 30.07 1018 10 16 0.00 0.00
12:53 pm 12:53 Sunny 76 24.4 49 9.4 39 39 SE 7 11 30.06 1018 10 16 0.00 0.00
1:53 pm 13:53 Sunny 78 25.6 49 9.4 36 36 SSE 12 19 30.05 1018 10 16 0.00 0.00
2:53 pm 14:53 Mostly Sunny 76 24.4 44 6.7 32 32 SSE 8 13 30.05 1018 10 16 0.00 0.00
3:53 pm 15:53 Mostly Sunny 79 26.1 50 10 36 36 SSE 8 13 30.03 1017 10 16 0.00 0.00
4:53 pm 16:53 Cloudy 79 26.1 52 11.1 39 39 SSW 8 13 30.01 1016 10 16 0.00 0.00
5:53 pm 17:53 Mostly Sunny 77 25 54 12.2 45 45 SSE 8 13 30.00 1016 10 16 0.00 0.00
6:53 pm 18:53 Sunny 76 24.4 54 12.2 47 47 S 12 19 30.00 1016 10 16 0.00 0.00
7:53 pm 19:53 Partly Cloudy 74 23.3 55 12.8 52 52 S 6 9 29.99 1016 10 16 0.00 0.00
8:53 pm 20:53 Sunny 71 21.7 57 13.9 61 61 S 8 13 30.01 1016 10 16 0.00 0.00
9:53 pm 21:53 Clear 68 20 57 13.9 68 68 S 5 7 30.04 1017 10 16 0.00 0.00
10:53 pm 22:53 Mostly Clear 68 20 58 14.4 70 70 S 8 13 30.03 1017 10 16 0.00 0.00
11:53 pm 23:53 Clear 68 20 58 14.4 70 70 SSE 12 19 30.00 1016 10 16 0.00 0.00

Powered by AerisWeather